{"data":{"norad_id":64174,"epoch":"2026-05-25T03:49:56.839296Z","epoch_age_seconds":54418,"freshness":"FRESH","line1":"1 64174U 25113E   26145.15968564  .00018455  00000+0  63365-3 0  9994","line2":"2 64174  53.1574  95.8936 0001501  95.4736 264.6436 15.30201957 56779","mean_motion":15.30201957,"eccentricity":0.0001501,"inclination_deg":53.1574,"raan_deg":95.8936,"arg_perigee_deg":95.4736,"mean_anomaly_deg":264.6436,"bstar":0.00063365,"rev_number":5677,"period_min":94.105225353597,"perigee_km":474.18053890775,"apogee_km":476.23791344485,"semimajor_km":6853.3462261763,"source":"CELESTRAK","updated_at":"2026-05-25T13:38:20.309757Z"}}